STARLINK-32089, 59687

Orbit data source: Space-Track

STARLINK-32089, 59687 is a payload satellite owned by SpaceX/Seattle (US) in LEO that was launched on Wed, 08 May 2024 UTC via an FALCON 9 launch vehicle from the Air Force Eastern Test Range (AFETR). Payload-class satellites include a variety of spacecraft equipped with specific instruments for various scientific and technological missions. These include communications satellites like Starlink; space stations such as the ISS; scientific satellites like the Hubble; Earth observation satellites from companies like Planet Labs, Umbra, and HawkEye 360; GPS; miniature CubeSats for education and research; and military/defense satellites.

Loading next visibility...
Identifier
59687, 2024-086F
Orbit
LEO
Country
Flag of USUS
Related business
Manufacturer
SpaceX/Seattle
Mission
Operational Commercial Communications
Bus & Motor
STARLINK V2M, Unknown motor
Mass
730 kg wet, ~700 kg dry
Launch date (UTC)
2024-05-08 (2 years ago)
Launch vehicle
FALCON 9
Launch site
Air Force Eastern Test Range (AFETR)
Object type
Payload
Rocket body
Debris
Shape & HBR
Box + 2 Pan, 17.7 m
Radar Cross Section
33.884 m², Large (>1 m²)

Expand to show TLE details & history
Last TLE update: 2 days ago

TLE from 2 days ago
0 STARLINK-32089
1 59687U 24086F   26171.08063376  .00001993  00000-0  81924-4 0  9995
2 59687  43.0037 201.4718 0002080 289.6762  70.3865 15.27586176119779
Epoch: 2026-06-20T01:56Z
TLE epoch observation values (Epoch: 2026-06-20T01:56:06.756Z)
Latitude
-0.00005°
Longitude
-95.85679°
Altitude
482.328 km
Speed
7.626 km/s
True Right ascension
13h 25m 53s
True Declination
0° 00' 00"
Sunlit
Object was in daylight at epoch
Visualization orbit readout
Latitude
Unknown
Longitude
Unknown
Altitude
Unknown
Speed
Unknown
Apparent Right ascension
Unknown
Apparent Declination
Unknown
Sunlit
N/A
Visualization observer readout
Local Sidereal Time
21:33:50
Azimuth
Unknown
Elevation
Unknown
Doppler factor
Unknown
Orbital elements
Apogee altitude
486.403 km
Perigee altitude
483.548 km
Semi-major axis
6,863.112 km
Eccentricity
0.00021
Inclination
43.0037°
RAAN
201.4718°
Arg. of periapsis
289.6762°
True anomaly
70.40895°
Mean anomaly
70.3865°
Eccentric anomaly
70.39773°
Mean motion
3.81735 °/min
Orbital period
94.31 mins
BSTAR
0.000081924
Loading maneuver chart data...
Computing Atmospheric mass density...
Loading historical data...
Loading historical data...
Loading historical data...
Loading historical data...
Loading historical data...
Loading historical data...
Loading historical data...

Documentation

Showing up to 5 results
|